Location: Newark
(49.3000°N, 9.4667°E)
Time: 02:38:52
(UTC+00:00)

deb Explorer IX - All Passes

Search period start: 23 May 2019 00:00
Search period end: 02 June 2019 00:00
Orbit: 538 x 1115 km, 38.8° (Epoch: 22 May)

Date Brightness Start Highest point End Pass type
(mag) Time Alt. Az. Time Alt. Az. Time Alt. Az.
23 May - 02:27:55 10° SSW 02:30:36 17° SSE 02:33:24 10° SE visible
23 May - 04:13:22 10° SW 04:16:35 21° S 04:20:04 10° SE daylight
23 May - 06:00:22 10° SW 06:02:36 13° SSW 06:05:00 10° S daylight
24 May - 02:06:19 10° SSW 02:08:58 17° SSE 02:11:42 10° SE visible
24 May - 03:51:51 10° SW 03:54:56 20° S 03:58:15 10° SE daylight
24 May - 05:39:00 10° SW 05:40:56 12° SSW 05:42:57 10° S daylight
25 May - 01:44:43 10° SSW 01:47:20 17° SSE 01:50:01 10° SE visible
25 May - 03:30:18 10° SW 03:33:18 19° S 03:36:27 10° SE daylight
25 May - 05:17:42 10° SW 05:19:15 12° SSW 05:20:53 10° S daylight
26 May - 01:23:05 10° SSW 01:25:42 17° SSE 01:28:20 10° SE visible
26 May - 03:08:46 10° SW 03:11:39 19° S 03:14:41 10° SE daylight
26 May - 04:56:29 10° SW 04:57:36 11° SSW 04:58:44 10° S daylight
27 May - 01:01:25 10° SSW 01:04:03 17° S 01:06:43 10° SE visible
27 May - 02:47:12 10° SW 02:50:01 18° S 02:52:56 10° SE visible
27 May - 04:35:33 10° SSW 04:35:56 10° SSW 04:36:19 10° SSW daylight
28 May - 00:39:44 10° SSW 00:42:26 17° S 00:45:06 10° SE visible
28 May - 02:25:37 10° SW 02:28:23 18° S 02:31:13 10° SE visible
29 May - 00:18:01 10° SSW 00:20:48 17° S 00:23:30 10° SE visible
29 May - 02:04:01 10° SW 02:06:45 18° S 02:09:31 10° SE visible
29 May - 23:56:17 10° SW 23:59:09 18° S 00:01:56 10° SE visible
30 May - 01:42:23 10° SW 01:45:07 17° S 01:47:51 10° SE visible
30 May - 23:34:31 10° SW 23:37:31 18° S 23:40:23 10° SE night (unlit)
31 May - 01:20:43 10° SW 01:23:29 17° S 01:26:12 10° SSE visible
31 May - 21:28:53 10° S 21:29:55 11° SSE 21:30:55 10° SE night (unlit)
31 May - 23:12:43 10° SW 23:15:52 19° S 23:18:50 10° SE night (unlit)
01 Jun - 00:59:02 10° SW 01:01:51 17° S 01:04:35 10° SSE visible
01 Jun - 21:06:37 10° S 21:08:13 11° SSE 21:09:46 10° SE visible
01 Jun - 22:50:54 10° SW 22:54:13 20° S 22:57:18 10° SE night (unlit)
